[[{"header":{"parameterUnit":"m.s-1","parameterCategory":2,"la1":30.2991,"la2":30.254,"lo1":-89.0895,"lo2":-89.0444,"dy":0.0017,"dx":0.0017,"nx":28,"ny":28,"refTime":"2023-08-25T09:00:00:Z","depth":"0","parameterNumber":2,"parameterNumberName":"U-component_of_CURRENTS"},"data":[0,0,0,0,0,0,0,0,0,0,0,0,0,0,0,0,0,0,0,0,0,0,0,0,0,0,0,0,0,0,0,0,0,0,0,0,0,0,0,0,0,0,0,0,0,0,0,0,0,0,0,0,0,0,0,0,0,0,0.4193,0.4194,0,0.4202,0.4201,0.42,0.4178,0.4178,0.4179,0.4179,0.4248,0.425,0.4251,0,0,0,0,0,0,0,0,0,0,0,0,0,0.4107,0.4108,0.4193,0.4194,0.4195,0.4202,0.4201,0.42,0.4178,0.4178,0.4179,0.4179,0.4248,0.425,0.4252,0,0,0,0,0,0,0,0,0,0,0,0,0,0.4123,0.4108,0.4193,0.4193,0.4194,0.4202,0.4201,0.42,0.4178,0.4178,0.4179,0.4179,0.4247,0.4249,0.4252,0.4258,0,0,0.4259,0.426,0,0,0,0,0,0,0,0,0.4122,0.4125,0.4192,0.4193,0.4194,0.4199,0.4197,0.4226,0.4178,0.4172,0.4179,0.4179,0.4244,0.4247,0.4231,0.4261,0.4264,0.4259,0.4261,0.4262,0.4262,0,0,0,0,0,0,0,0.4121,0.4124,0.4185,0.4193,0.4195,0.4176,0.4178,0.4201,0.4199,0.4173,0.4174,0.4192,0.4244,0.4229,0.4233,0.4265,0.4259,0.4261,0.4263,0.4264,0.4378,0.438,0,0,0,0,0,0,0.4144,0.4123,0.4185,0.4187,0.417,0.4178,0.418,0.4188,0.4197,0.4201,0.4192,0.4191,0.4224,0.423,0.4236,0.4315,0.4262,0.4264,0.4265,0.4377,0.4379,0.438,0,0,0,0,0,0,0.4142,0.4149,0.4185,0.4164,0.4169,0.4181,0.4189,0.4188,0.4184,0.4213,0.4216,0.4192,0.4225,0.4232,0.4276,0.4316,0.4265,0.4267,0.4375,0.4377,0.4379,0.443,0,0,0,0,0,0,0.4139,0.4147,0.4154,0.4166,0.4172,0.4217,0.419,0.4188,0.4199,0.4198,0.4214,0.422,0.4226,0.4272,0.4278,0.4318,0.4269,0.4373,0.4376,0.4379,0.4426,0.4433,0.444,0,0,0,0,0,0.4135,0.4152,0.4154,0.4162,0.4182,0.422,0.422,0.4222,0.4199,0.4213,0.4219,0.422,0.4296,0.4275,0.4282,0.4323,0.4371,0.4375,0.4378,0.4423,0.4432,0.444,0,0,0,0,0,0,0.4111,0.4152,0.4155,0.418,0.4212,0.4221,0.4229,0.4226,0.4234,0.4231,0.4236,0.4244,0.4299,0.4302,0.4279,0.4366,0.4336,0.4341,0.4367,0.4376,0.4383,0.4403,0.4271,0,0,0,0,0,0.4113,0.414,0.4175,0.4198,0.4209,0.4215,0.4225,0.4234,0.425,0.4251,0.4259,0.4278,0.4316,0.4338,0.4364,0.4408,0.4412,0.444,0.4447,0.4453,0.4475,0.4507,0.4519,0.4392,0.4392,0.4392,0,0,0.4108,0.414,0.4151,0.4196,0.4205,0.4229,0.4219,0.4248,0.4274,0.4261,0.4283,0.4303,0.4333,0.4385,0.4411,0.4395,0.4489,0.4458,0.4463,0.4482,0.4512,0.4524,0.4535,0.4395,0.4394,0.4394,0,0,0.4116,0.4138,0.4158,0.4187,0.4231,0.4247,0.4261,0.4279,0.4291,0.4328,0.4329,0.4381,0.4409,0.4453,0.4476,0.4541,0.4524,0.4539,0.4595,0.4625,0.4636,0.4645,0.4652,0.4662,0.4544,0.4544,0.4544,0,0.4104,0.4136,0.4171,0.4198,0.4223,0.4256,0.4277,0.4303,0.4336,0.4359,0.435,0.4418,0.4452,0.453,0.4563,0.4561,0.4555,0.4558,0.4634,0.4644,0.4652,0.4657,0.4667,0.4547,0.4546,0.4546,0.4546,0,0.4122,0.4148,0.4164,0.4209,0.4245,0.4276,0.4327,0.4361,0.4379,0.4405,0.4477,0.4517,0.4561,0.4587,0.4603,0.4688,0.4654,0.4636,0.461,0.4668,0.4669,0.4679,0.4551,0.455,0.4549,0.4548,0,0,0.4079,0.4158,0.4159,0.418,0.4253,0.428,0.4346,0.4413,0.4452,0.4498,0.4553,0.4638,0.4652,0.4682,0.4704,0.4753,0.4823,0.4728,0.4728,0.4731,0.4866,0.4727,0.4724,0.4803,0.4805,0.4807,0.4836,0,0.4073,0.4119,0.4168,0.4211,0.4234,0.4301,0.4357,0.4431,0.4491,0.4557,0.4629,0.4688,0.4688,0.4719,0.477,0.4823,0.4852,0.4816,0.4814,0.4815,0.4681,0.4733,0.4569,0.4572,0.4845,0.4847,0.4848,0,0.4065,0.4101,0.4138,0.4215,0.4229,0.4268,0.4365,0.4427,0.4549,0.4597,0.4674,0.4718,0.4828,0.4805,0.4902,0.4869,0.4877,0.4901,0.4901,0.4766,0.4694,0.4562,0.4578,0.4494,0.4863,0.4861,0.486,0,0.4014,0.4078,0.4107,0.413,0.4223,0.4259,0.4318,0.4433,0.4489,0.4629,0.4675,0.4784,0.4838,0.4888,0.4941,0.4924,0.5025,0.4997,0.4869,0.4858,0.4719,0.4691,0.4652,0.5045,0.5045,0.5045,0.5045,0,0.3993,0.4014,0.4082,0.4095,0.4134,0.4221,0.4284,0.4369,0.4491,0.4555,0.468,0.4734,0.4861,0.4925,0.4962,0.4943,0.5027,0.4894,0.4865,0.4728,0.4702,0.4619,0.4583,0.5046,0.5046,0.5046,0.5046,0,0.3942,0.3989,0.4016,0.409,0.4112,0.4142,0.4243,0.4292,0.4419,0.4511,0.4556,0.4714,0.4784,0.4873,0.4969,0.4937,0.4822,0.4921,0.4741,0.4688,0.4447,0.4419,0.4195,0.4077,0.4781,0.4778,0.4775,0,0.3919,0.3928,0.3981,0.399,0.4022,0.4075,0.4112,0.4242,0.4295,0.4473,0.4506,0.4623,0.4664,0.475,0.4754,0.4766,0.4673,0.4594,0.4533,0.442,0.437,0.4225,0.4133,0.4375,0.4369,0.4364,0.4361,0,0.3862,0.3881,0.3904,0.3916,0.394,0.3967,0.4031,0.4057,0.4209,0.4273,0.4364,0.4422,0.4506,0.4448,0.4464,0.4461,0.4375,0.4491,0.4439,0.4101,0.3878,0.3754,0.4366,0.4319,0.4323,0.4326,0.4328,0.433,0.3806,0.3797,0.3817,0.3813,0.384,0.3837,0.38,0.3868,0.3904,0.3939,0.4124,0.4112,0.4193,0.4183,0.4154,0.4027,0.4029,0.3932,0.3926,0.3803,0.3618,0.4115,0.3986,0.3988,0.399,0.3992,0.3993,0,0.3697,0.37,0.3705,0.3681,0.364,0.3701,0.3711,0.3631,0.3575,0.3677,0.3699,0.3729,0.3665,0.3716,0.3684,0.3545,0.3406,0.3444,0.3255,0.3209,0.3723,0.3637,0.3346,0.3346,0.3346,0.3346,0.3347,0.3347,0.3644,0.3591,0.3577,0.3461,0.3445,0.3321,0.3279,0.3194,0.3204,0.3122,0.311,0.3191,0.3393,0.3421,0.3308,0.3225,0.3024,0.2828,0.2848,0.3289,0.3336,0.338,0.3293,0.2935,0.2934,0.2219,0.2214,0.221]},{"header":{"parameterUnit":"m.s-1","parameterCategory":2,"la1":30.2991,"la2":30.254,"lo1":-89.0895,"lo2":-89.0444,"dy":0.0017,"dx":0.0017,"nx":28,"ny":28,"refTime":"2023-08-25T09:00:00:Z","depth":"0","parameterNumber":3,"parameterNumberName":"V-component_of_CURRENTS"},"data":[0,0,0,0,0,0,0,0,0,0,0,0,0,0,0,0,0,0,0,0,0,0,0,0,0,0,0,0,0,0,0,0,0,0,0,0,0,0,0,0,0,0,0,0,0,0,0,0,0,0,0,0,0,0,0,0,0,0,0.0204,0.0203,0,0.0161,0.0161,0.016,0.0118,0.0117,0.0117,0.0116,0.0019,0.0017,0.0015,0,0,0,0,0,0,0,0,0,0,0,0,0,0.0228,0.0228,0.0204,0.0203,0.0203,0.0161,0.0161,0.016,0.0118,0.0117,0.0117,0.0116,0.002,0.0018,0.0015,0,0,0,0,0,0,0,0,0,0,0,0,0,0.0205,0.0228,0.0204,0.0176,0.0173,0.0161,0.016,0.016,0.0118,0.0117,0.0116,0.0116,0.0021,0.0018,0.0015,0.0014,0,0,0.0006,0.0004,0,0,0,0,0,0,0,0,0.0207,0.0204,0.0181,0.0178,0.0175,0.0143,0.0134,0.0108,0.0118,0.014,0.0116,0.0115,0.0056,0.005,0.0046,0.0009,0.0005,0.0005,0.0004,0.0002,0.0001,0,0,0,0,0,0,0,0.0208,0.0206,0.0187,0.018,0.0177,0.0159,0.0155,0.0129,0.0103,0.0138,0.0134,0.0129,0.0054,0.0049,0.0043,0.0004,0.0005,0.0003,0.0001,-0.0,-0.0033,-0.0032,0,0,0,0,0,0,0.0215,0.0208,0.0189,0.0186,0.0188,0.0159,0.0155,0.0155,0.0104,0.0096,0.013,0.0127,0.0054,0.0046,0.0039,0.0051,0.0002,-0.0001,-0.0002,-0.0034,-0.0033,-0.0032,0,0,0,0,0,0,0.0216,0.0214,0.019,0.0195,0.0191,0.016,0.016,0.0154,0.0147,0.0099,0.0089,0.0128,0.0053,0.0043,0.0029,0.0047,-0.0002,-0.0005,-0.0035,-0.0034,-0.0032,0.0065,0,0,0,0,0,0,0.0217,0.0215,0.0221,0.0196,0.0191,0.0196,0.0161,0.0154,0.0145,0.0141,0.0094,0.0084,0.0052,0.0034,0.0026,0.0041,-0.0007,-0.0036,-0.0034,-0.0033,0.0061,0.007,0.0077,0,0,0,0,0,0.0218,0.0235,0.0222,0.0219,0.0199,0.0197,0.0194,0.0168,0.0146,0.0155,0.0124,0.0085,0.0039,0.0033,0.0023,0.0038,-0.0037,-0.0035,-0.0033,0.0057,0.0068,0.0077,0,0,0,0,0,0,0.0252,0.0232,0.0216,0.0227,0.0216,0.019,0.0198,0.0173,0.0156,0.0152,0.0099,0.0089,0.008,0.0048,0.0042,0.0034,-0.0006,-0.0006,0.0065,0.0075,0.0083,0.0124,-0.001,0,0,0,0,0,0.0262,0.0268,0.0245,0.0255,0.0254,0.0225,0.022,0.0203,0.0182,0.0174,0.0138,0.0104,0.0083,0.0071,0.0044,0.0043,0.0025,0.0045,0.0054,0.0061,0.0087,0.0087,0.0098,-0.0025,-0.0025,-0.0025,0,0,0.0276,0.0267,0.027,0.0263,0.0253,0.0266,0.0221,0.0224,0.0235,0.0166,0.017,0.013,0.0088,0.0088,0.0081,0.0063,0.0083,0.0064,0.007,0.0093,0.0091,0.0103,0.0113,-0.0023,-0.0023,-0.0024,0,0,0.0316,0.0304,0.0325,0.0322,0.0313,0.0301,0.0303,0.028,0.0274,0.0272,0.0225,0.0206,0.0166,0.0149,0.0133,0.0173,0.0125,0.0151,0.023,0.0229,0.0239,0.0249,0.0229,0.0236,0.0159,0.0159,0.0159,0,0.0334,0.0358,0.0332,0.0352,0.0361,0.032,0.035,0.0342,0.0315,0.0325,0.0288,0.025,0.0203,0.0218,0.0227,0.0194,0.0179,0.0195,0.0242,0.0251,0.0258,0.0236,0.0242,0.0164,0.0163,0.0163,0.0162,0,0.0389,0.0408,0.0424,0.0437,0.0442,0.0464,0.0448,0.0454,0.0434,0.0422,0.0427,0.0371,0.0349,0.0326,0.0287,0.0319,0.0284,0.0251,0.0222,0.0277,0.0249,0.0254,0.0171,0.0169,0.0168,0.0166,0,0,0.0439,0.0459,0.0467,0.0493,0.0492,0.051,0.0535,0.0559,0.0594,0.0555,0.0602,0.0545,0.0506,0.0487,0.0429,0.0429,0.0451,0.0372,0.0369,0.0362,0.0441,0.0396,0.0396,0.0426,0.0428,0.0429,0.0395,0,0.0496,0.0557,0.0549,0.0614,0.0649,0.063,0.0665,0.0677,0.0676,0.0709,0.0662,0.0673,0.0569,0.0566,0.0545,0.0487,0.047,0.0463,0.0381,0.0379,0.034,0.0403,0.0399,0.0367,0.0399,0.04,0.0401,0,0.0561,0.0596,0.0669,0.0721,0.0736,0.0768,0.083,0.0856,0.0882,0.0883,0.0875,0.0831,0.0819,0.0726,0.0649,0.065,0.0554,0.0499,0.0496,0.0431,0.0344,0.0318,0.0374,0.0211,0.0407,0.0407,0.0406,0,0.0627,0.0686,0.0753,0.0768,0.0814,0.0855,0.0884,0.0917,0.0969,0.1004,0.1049,0.0996,0.0999,0.0888,0.0732,0.0703,0.0653,0.0591,0.0457,0.0451,0.0422,0.0411,0.0324,0.0541,0.0541,0.0541,0.0541,0,0.07,0.0753,0.0795,0.0834,0.0932,0.0934,0.1039,0.106,0.1121,0.1217,0.1143,0.1207,0.1046,0.0978,0.0809,0.0653,0.0696,0.0496,0.0455,0.0452,0.0445,0.0279,0.0184,0.0539,0.054,0.054,0.054,0,0.0762,0.0784,0.0867,0.0934,0.0967,0.1038,0.1139,0.1216,0.1257,0.1385,0.1409,0.139,0.1317,0.1121,0.0962,0.077,0.0517,0.0535,0.0531,0.049,0.0214,0.0125,-0.0001,-0.0072,0.0406,0.0405,0.0404,0,0.0798,0.0848,0.0944,0.1005,0.1042,0.1144,0.1224,0.1284,0.1376,0.1506,0.1586,0.156,0.1555,0.1283,0.0969,0.0676,0.0501,0.0458,0.0399,0.0224,0.0095,0.0024,-0.0031,0.0388,0.0387,0.0386,0.0385,0,0.0872,0.0902,0.0969,0.1093,0.1188,0.1303,0.1423,0.1519,0.1621,0.1736,0.1871,0.1884,0.1634,0.1357,0.0941,0.0723,0.0347,0.0432,0.0266,0.01,0.0006,-0.0091,0.0363,0.0378,0.0379,0.038,0.038,0.038,0.0923,0.0982,0.107,0.1188,0.1303,0.1453,0.1563,0.1703,0.1876,0.2051,0.2062,0.2106,0.1704,0.1156,0.0838,0.0283,0.0287,0.0103,0.0017,-0.0033,-0.0116,0.0315,0.027,0.027,0.027,0.027,0.027,0,0.0983,0.105,0.1161,0.1303,0.1435,0.1487,0.1691,0.1814,0.2029,0.2172,0.2272,0.2113,0.1599,0.1084,0.0339,-0.0066,-0.0201,-0.0273,-0.0368,-0.04,0.0002,-0.0014,-0.014,-0.0139,-0.0139,-0.0139,-0.0139,-0.0139,0.1018,0.1118,0.1171,0.1387,0.1497,0.1681,0.1803,0.1995,0.2139,0.2307,0.2341,0.2337,0.1964,0.0649,-0.0241,-0.0446,-0.0682,-0.076,-0.0872,-0.0607,-0.0578,-0.0551,-0.0587,-0.0831,-0.0832,-0.1226,-0.123,-0.1233]}],[{"header":{"parameterUnit":"m.s-1","parameterCategory":2,"la1":30.2991,"la2":30.254,"lo1":-89.0895,"lo2":-89.0444,"dy":0.0017,"dx":0.0017,"nx":28,"ny":28,"refTime":"2023-08-25T09:00:00:Z","depth":"2","parameterNumber":2,"parameterNumberName":"U-component_of_CURRENTS"},"data":[0,0,0,0,0,0,0,0,0,0,0,0,0,0,0,0,0,0,0,0,0,0,0,0,0,0,0,0,0,0,0,0,0,0,0,0,0,0,0,0,0,0,0,0,0,0,0,0,0,0,0,0,0,0,0,0,0,0,0.2884,0.2886,0,0.296,0.296,0.296,0.2968,0.2968,0.2969,0.2969,0.2893,0.289,0.2888,0,0,0,0,0,0,0,0,0,0,0,0,0,0.2796,0.2797,0.2884,0.2886,0.2888,0.296,0.296,0.296,0.2968,0.2968,0.2969,0.2969,0.2894,0.2891,0.2888,0,0,0,0,0,0,0,0,0,0,0,0,0,0.2837,0.2797,0.2884,0.291,0.2914,0.296,0.296,0.296,0.2968,0.2968,0.2969,0.2969,0.2894,0.2891,0.2887,0.2853,0,0,0.2876,0.2875,0,0,0,0,0,0,0,0,0.2835,0.2839,0.2904,0.2909,0.2914,0.2966,0.2902,0.2921,0.2967,0.2934,0.2969,0.297,0.2911,0.2906,0.2903,0.285,0.2847,0.2876,0.2874,0.2872,0.2871,0,0,0,0,0,0,0,0.2832,0.2836,0.2901,0.2907,0.2913,0.2937,0.2941,0.2905,0.2905,0.2937,0.2941,0.2969,0.2911,0.2907,0.2901,0.2845,0.2876,0.2873,0.2871,0.2869,0.2999,0.3004,0,0,0,0,0,0,0.2845,0.2833,0.2899,0.2905,0.2889,0.2939,0.2943,0.2938,0.2909,0.2911,0.2969,0.297,0.2913,0.2905,0.2898,0.2962,0.2872,0.2869,0.2867,0.2993,0.3,0.3006,0,0,0,0,0,0,0.2842,0.2848,0.2896,0.2883,0.2893,0.294,0.2935,0.294,0.2955,0.2938,0.2933,0.2983,0.2913,0.2904,0.2933,0.2954,0.2867,0.2864,0.2986,0.2995,0.3003,0.302,0,0,0,0,0,0,0.2838,0.2846,0.2857,0.2883,0.2894,0.2946,0.2936,0.2941,0.2977,0.2978,0.2947,0.294,0.2912,0.2939,0.293,0.2948,0.2861,0.2979,0.299,0.3,0.3012,0.3027,0.3041,0,0,0,0,0,0.2834,0.2853,0.2855,0.2866,0.2902,0.2949,0.2956,0.2984,0.2977,0.2994,0.3006,0.2942,0.3001,0.294,0.2927,0.2945,0.2974,0.2987,0.2999,0.3005,0.3024,0.304,0,0,0,0,0,0,0.2828,0.2858,0.286,0.2888,0.2927,0.2956,0.2989,0.2993,0.3011,0.3017,0.298,0.2976,0.3014,0.3006,0.294,0.3035,0.2989,0.3,0.2999,0.3016,0.303,0.3006,0.2858,0,0,0,0,0,0.283,0.2844,0.2883,0.2907,0.2929,0.2954,0.298,0.2998,0.3021,0.3029,0.3014,0.3031,0.3054,0.3056,0.3069,0.309,0.3088,0.3118,0.3133,0.3144,0.3131,0.3183,0.3197,0.3047,0.3047,0.3047,0,0,0.2835,0.2858,0.2866,0.2908,0.2935,0.2964,0.2968,0.3019,0.3044,0.3015,0.3043,0.306,0.3078,0.3122,0.3141,0.3113,0.3196,0.316,0.3167,0.3148,0.3197,0.321,0.3222,0.3056,0.3054,0.3053,0,0,0.2854,0.2872,0.2889,0.2922,0.2983,0.2997,0.3014,0.3052,0.3074,0.3112,0.312,0.3166,0.3175,0.3204,0.3216,0.3324,0.3268,0.3347,0.3377,0.3428,0.3438,0.3447,0.3471,0.3482,0.3353,0.3353,0.3353,0,0.2871,0.2878,0.2908,0.294,0.2974,0.3008,0.3037,0.3066,0.3111,0.3141,0.3136,0.3218,0.3214,0.3282,0.333,0.3341,0.3359,0.3284,0.3436,0.3445,0.3453,0.3476,0.3487,0.3355,0.3355,0.3355,0.3355,0,0.288,0.291,0.2933,0.2965,0.3006,0.3046,0.3094,0.3137,0.3161,0.3188,0.3269,0.3296,0.3354,0.3372,0.3364,0.3447,0.3437,0.3435,0.336,0.3467,0.3488,0.3499,0.3359,0.3358,0.3357,0.3357,0,0,0.2864,0.2924,0.2936,0.2955,0.3024,0.3052,0.3119,0.3182,0.3227,0.328,0.3343,0.34,0.3431,0.3455,0.3475,0.3503,0.357,0.3491,0.3493,0.3459,0.367,0.3564,0.3565,0.3587,0.3589,0.3591,0.366,0,0.2867,0.2912,0.2947,0.2996,0.302,0.3087,0.3138,0.3209,0.327,0.3342,0.3405,0.347,0.3463,0.3503,0.3539,0.3566,0.3601,0.355,0.3621,0.3623,0.3468,0.3575,0.3307,0.3337,0.3671,0.3672,0.3674,0,0.2856,0.289,0.2931,0.3004,0.3023,0.3061,0.3159,0.3218,0.3338,0.339,0.3485,0.3538,0.3622,0.3596,0.3685,0.3656,0.367,0.3672,0.3675,0.3568,0.3537,0.3293,0.3344,0.3692,0.369,0.3689,0.3688,0,0.2804,0.288,0.2904,0.293,0.3016,0.3063,0.3121,0.3236,0.3302,0.3441,0.3507,0.3611,0.3676,0.3723,0.3751,0.3734,0.3817,0.3804,0.3721,0.3713,0.3492,0.346,0.3862,0.3862,0.3862,0.3862,0.3862,0,0.2777,0.2801,0.2884,0.29,0.2951,0.3033,0.3115,0.3197,0.3326,0.3396,0.3538,0.3606,0.3709,0.3777,0.3787,0.3786,0.3867,0.3732,0.373,0.3497,0.3466,0.3776,0.3765,0.3865,0.3864,0.3864,0.3863,0,0.2712,0.2758,0.2798,0.2894,0.2927,0.2971,0.3105,0.3156,0.3301,0.3408,0.3461,0.3623,0.3706,0.3787,0.3851,0.3821,0.3833,0.3809,0.3513,0.3475,0.3685,0.3676,0.3736,0.3733,0.3731,0.3729,0.3727,0,0.2684,0.2692,0.2788,0.2806,0.285,0.2933,0.2979,0.3125,0.3177,0.3391,0.3415,0.3573,0.364,0.3721,0.3691,0.3709,0.3785,0.3447,0.336,0.3683,0.3676,0.3671,0.3665,0.3087,0.308,0.3075,0.307,0,0.2631,0.2662,0.2691,0.2735,0.2777,0.2839,0.2919,0.2959,0.3117,0.3209,0.3311,0.3401,0.3505,0.3395,0.3431,0.3398,0.3424,0.333,0.3767,0.3154,0.3074,0.3067,0.3082,0.302,0.3025,0.3028,0.3031,0.3033,0.2595,0.2593,0.2624,0.2656,0.2694,0.2726,0.2719,0.2796,0.2862,0.2952,0.3103,0.3137,0.3177,0.3097,0.3001,0.2931,0.3165,0.3022,0.3038,0.3061,0.2967,0.2886,0.2778,0.2782,0.2785,0.2787,0.279,0,0.2527,0.2523,0.2542,0.2555,0.2529,0.2606,0.2641,0.2598,0.2592,0.2716,0.2779,0.2605,0.2561,0.2607,0.2431,0.2424,0.2395,0.2319,0.2258,0.2311,0.2358,0.2225,0.1841,0.1838,0.1835,0.1832,0,0,0.2478,0.245,0.2449,0.2381,0.2384,0.2307,0.2293,0.2264,0.2298,0.2278,0.2275,0.2478,0.2561,0.2176,0.212,0.1948,0.2112,0.1874,0.2645,0.2629,0.2671,0.2783,0.2643,0,0,0,0,0]},{"header":{"parameterUnit":"m.s-1","parameterCategory":2,"la1":30.2991,"la2":30.254,"lo1":-89.0895,"lo2":-89.0444,"dy":0.0017,"dx":0.0017,"nx":28,"ny":28,"refTime":"2023-08-25T09:00:00:Z","depth":"2","parameterNumber":3,"parameterNumberName":"V-component_of_CURRENTS"},"data":[0,0,0,0,0,0,0,0,0,0,0,0,0,0,0,0,0,0,0,0,0,0,0,0,0,0,0,0,0,0,0,0,0,0,0,0,0,0,0,0,0,0,0,0,0,0,0,0,0,0,0,0,0,0,0,0,0,0,0.0222,0.0222,0,0.0182,0.0182,0.0181,0.0153,0.0153,0.0153,0.0152,0.0093,0.0091,0.009,0,0,0,0,0,0,0,0,0,0,0,0,0,0.0238,0.0238,0.0222,0.0222,0.0221,0.0182,0.0182,0.0181,0.0153,0.0153,0.0152,0.0152,0.0093,0.0092,0.009,0,0,0,0,0,0,0,0,0,0,0,0,0,0.0219,0.0238,0.0223,0.0201,0.0199,0.0182,0.0182,0.0181,0.0153,0.0153,0.0152,0.0152,0.0093,0.0092,0.009,0.0089,0,0,0.0084,0.0083,0,0,0,0,0,0,0,0,0.022,0.0219,0.0205,0.0203,0.02,0.0171,0.0165,0.0149,0.0154,0.0172,0.0152,0.0152,0.0116,0.0113,0.0109,0.0086,0.0083,0.0084,0.0083,0.0082,0.0081,0,0,0,0,0,0,0,0.0222,0.022,0.0208,0.0204,0.0201,0.0181,0.0178,0.0162,0.0149,0.0171,0.0168,0.0161,0.0115,0.0111,0.0107,0.0083,0.0084,0.0082,0.0081,0.008,0.0042,0.0042,0,0,0,0,0,0,0.0226,0.0222,0.0209,0.0207,0.0207,0.0181,0.0178,0.0182,0.0149,0.0143,0.0162,0.016,0.0114,0.0109,0.0105,0.0109,0.0082,0.008,0.0079,0.0042,0.0042,0.0042,0,0,0,0,0,0,0.0227,0.0226,0.0211,0.0211,0.0208,0.0181,0.0186,0.0181,0.0175,0.0142,0.0136,0.016,0.0113,0.0107,0.0092,0.0106,0.0079,0.0078,0.0042,0.0042,0.0042,0.0112,0,0,0,0,0,0,0.0228,0.0227,0.0229,0.0212,0.0208,0.0211,0.0186,0.0181,0.0171,0.0168,0.0139,0.0133,0.0113,0.0095,0.009,0.0103,0.0076,0.0042,0.0042,0.0042,0.0109,0.0114,0.0118,0,0,0,0,0,0.0229,0.024,0.023,0.0228,0.0213,0.0212,0.0209,0.0188,0.0171,0.0178,0.0152,0.0133,0.0093,0.0094,0.0088,0.01,0.0041,0.0042,0.0042,0.0107,0.0113,0.0118,0,0,0,0,0,0,0.0248,0.0238,0.0226,0.0234,0.0226,0.0207,0.0208,0.0191,0.0176,0.0172,0.0137,0.013,0.0122,0.0098,0.01,0.0087,0.0063,0.0062,0.0114,0.012,0.0124,0.015,0.0075,0,0,0,0,0,0.0253,0.0262,0.0245,0.0253,0.0251,0.0229,0.0223,0.0212,0.0195,0.0188,0.0164,0.0137,0.0119,0.0109,0.009,0.0085,0.006,0.0087,0.0091,0.0095,0.0111,0.0079,0.0083,0.0043,0.0043,0.0043,0,0,0.0262,0.0258,0.0261,0.0257,0.0249,0.0259,0.0225,0.0227,0.0235,0.0184,0.0186,0.0154,0.012,0.0116,0.011,0.0099,0.0091,0.0096,0.01,0.0113,0.008,0.0084,0.0088,0.0043,0.0043,0.0043,0,0,0.0291,0.0283,0.03,0.03,0.0292,0.0282,0.0284,0.0267,0.0262,0.0257,0.0221,0.0198,0.0171,0.0152,0.0138,0.0154,0.0117,0.0142,0.0189,0.0159,0.0162,0.0165,0.0133,0.0133,0.0145,0.0145,0.0145,0,0.0299,0.0323,0.0305,0.0323,0.0329,0.0297,0.032,0.0312,0.0292,0.0293,0.0268,0.0225,0.0192,0.0188,0.0191,0.0168,0.0142,0.0174,0.0166,0.0169,0.017,0.0137,0.0136,0.0149,0.0148,0.0148,0.0148,0,0.0344,0.036,0.0373,0.0387,0.0391,0.0408,0.0395,0.0398,0.038,0.0365,0.0355,0.0305,0.0282,0.0261,0.0232,0.0228,0.0203,0.0177,0.0158,0.0179,0.0142,0.0139,0.0154,0.0152,0.0151,0.0151,0,0,0.0375,0.04,0.0404,0.0429,0.043,0.0444,0.0461,0.0471,0.0491,0.0453,0.0471,0.0421,0.0386,0.0367,0.032,0.0289,0.0268,0.0243,0.024,0.0223,0.02,0.0168,0.0161,0.024,0.024,0.024,0.0168,0,0.0417,0.047,0.0467,0.052,0.055,0.0536,0.056,0.0562,0.0551,0.0559,0.0504,0.0499,0.0429,0.042,0.0377,0.0301,0.0265,0.029,0.0174,0.017,0.0148,0.0159,0.0179,0.0116,0.0165,0.0165,0.0164,0,0.0466,0.0498,0.0557,0.0604,0.0616,0.064,0.068,0.07,0.0695,0.0685,0.0658,0.0612,0.0567,0.0503,0.0384,0.0403,0.0312,0.0243,0.0238,0.0187,0.0134,0.0102,0.0109,0.0159,0.016,0.016,0.016,0,0.0513,0.0564,0.0619,0.0635,0.0676,0.0705,0.0729,0.074,0.0778,0.077,0.079,0.0711,0.0688,0.0567,0.0413,0.0403,0.0276,0.0242,0.0127,0.0123,0.0108,0.0103,0.0161,0.0161,0.0161,0.0161,0.0161,0,0.0567,0.061,0.065,0.0682,0.0763,0.0766,0.0846,0.0855,0.0884,0.0942,0.0863,0.0877,0.0704,0.0605,0.0452,0.0281,0.0301,0.0143,0.0106,0.0131,0.0129,0.014,0.0139,0.0159,0.0159,0.016,0.016,0,0.0612,0.0633,0.0705,0.0761,0.079,0.0851,0.0935,0.0989,0.1004,0.1077,0.1084,0.1007,0.0882,0.0693,0.0495,0.0344,0.0177,0.0107,0.0145,0.0114,0.0036,0.0039,-0.0013,-0.0015,-0.0016,-0.0017,-0.0018,0,0.0641,0.0682,0.0771,0.0822,0.0853,0.0942,0.1007,0.105,0.1112,0.1158,0.1196,0.1105,0.1051,0.074,0.0463,0.0198,0.0161,0.0033,0.0016,0.0051,0.002,0.0025,0.0029,0.0018,0.0017,0.0017,0.0017,0,0.0697,0.0725,0.0783,0.0893,0.0972,0.1077,0.1169,0.124,0.13,0.1353,0.1389,0.1353,0.1073,0.0801,0.0432,0.0247,0.0077,0.0014,0.0044,0.006,0.0074,0.0046,0.005,0.0012,0.0013,0.0013,0.0013,0.0013,0.0738,0.0789,0.0863,0.0971,0.1069,0.1196,0.1282,0.1376,0.1489,0.157,0.1524,0.1467,0.1169,0.0698,0.0378,0.004,0.0062,-0.0061,-0.0057,-0.0053,-0.0035,-0.0024,-0.0102,-0.0102,-0.0102,-0.0102,-0.0102,0,0.0785,0.0842,0.0937,0.1062,0.1169,0.122,0.1377,0.1457,0.1583,0.165,0.167,0.1381,0.1081,0.0736,0.0243,-0.0048,-0.0065,-0.0149,-0.01,-0.0093,-0.0088,-0.0071,-0.0148,-0.0149,-0.015,-0.0151,0,0,0.0809,0.0895,0.0944,0.1121,0.1213,0.1359,0.145,0.1568,0.1644,0.1699,0.1664,0.1597,0.1184,0.082,0.0424,0.0139,0.0089,0.0077,0.0145,0.0257,0.0265,-0.0008,0.0029,0,0,0,0,0]}],[{"header":{"parameterUnit":"m.s-1","parameterCategory":2,"la1":30.2991,"la2":30.254,"lo1":-89.0895,"lo2":-89.0444,"dy":0.0017,"dx":0.0017,"nx":28,"ny":28,"refTime":"2023-08-25T09:00:00:Z","depth":"4","parameterNumber":2,"parameterNumberName":"U-component_of_CURRENTS"},"data":[0,0,0,0,0,0,0,0,0,0,0,0,0,0,0,0,0,0,0,0,0,0,0,0,0,0,0,0,0,0,0,0,0,0,0,0,0,0,0,0,0,0,0,0,0,0,0,0,0,0,0,0,0,0,0,0,0,0,0.1653,0.1653,0,0.1721,0.1721,0.1722,0.1797,0.1798,0.1799,0.18,0.1808,0.1807,0.1806,0,0,0,0,0,0,0,0,0,0,0,0,0,0.1602,0.1602,0.1653,0.1653,0.1654,0.172,0.1722,0.1723,0.1796,0.1798,0.1799,0.18,0.1808,0.1807,0.1806,0,0,0,0,0,0,0,0,0,0,0,0,0,0.1643,0.1602,0.1652,0.1698,0.1703,0.172,0.1722,0.1723,0.1796,0.1798,0.1799,0.1801,0.1808,0.1807,0.1806,0.177,0,0,0.1803,0.1802,0,0,0,0,0,0,0,0,0.164,0.1645,0.1691,0.1695,0.17,0.1751,0.1707,0.1735,0.1796,0.1762,0.18,0.1801,0.1781,0.1782,0.1794,0.177,0.1771,0.1803,0.1802,0.1802,0.1801,0,0,0,0,0,0,0,0.1637,0.1642,0.1681,0.1691,0.1697,0.172,0.1728,0.1713,0.1762,0.1765,0.177,0.1776,0.1784,0.1795,0.1795,0.1771,0.1803,0.1802,0.1801,0.1801,0.1869,0.1871,0,0,0,0,0,0,0.1625,0.1639,0.1678,0.1682,0.1672,0.172,0.1728,0.1734,0.1764,0.177,0.1774,0.1779,0.1796,0.1796,0.1795,0.187,0.1802,0.1801,0.18,0.1866,0.1869,0.1872,0,0,0,0,0,0,0.1623,0.1627,0.1676,0.1662,0.167,0.1719,0.1725,0.1734,0.1787,0.1771,0.1777,0.1821,0.1797,0.1797,0.183,0.1866,0.18,0.1799,0.1864,0.1867,0.1871,0.1943,0,0,0,0,0,0,0.1621,0.1626,0.1649,0.1661,0.167,0.1717,0.1724,0.1735,0.1785,0.1793,0.1812,0.1812,0.1799,0.1832,0.1829,0.1863,0.1798,0.186,0.1865,0.187,0.1938,0.1949,0.1959,0,0,0,0,0,0.1619,0.1638,0.165,0.1656,0.1691,0.1718,0.1727,0.1766,0.1786,0.1818,0.1838,0.1814,0.1859,0.1832,0.1828,0.1863,0.1858,0.1864,0.1869,0.1933,0.1947,0.1958,0,0,0,0,0,0,0.1633,0.1647,0.1661,0.1686,0.1714,0.1731,0.1768,0.1786,0.1828,0.1843,0.1833,0.1835,0.1881,0.1865,0.1836,0.1902,0.1859,0.1864,0.1909,0.1922,0.1932,0.193,0.1797,0,0,0,0,0,0.1642,0.1662,0.1678,0.1705,0.1722,0.1751,0.1775,0.1797,0.1822,0.1845,0.1861,0.1878,0.1892,0.1903,0.1912,0.1934,0.1936,0.1961,0.1972,0.198,0.198,0.2038,0.2053,0.189,0.189,0.189,0,0,0.1652,0.1666,0.1678,0.171,0.1738,0.1763,0.1772,0.1815,0.1843,0.1833,0.1895,0.1913,0.1909,0.1949,0.1967,0.1943,0.2028,0.1987,0.1994,0.1989,0.2045,0.2061,0.2075,0.1894,0.1893,0.1893,0,0,0.1669,0.17,0.1719,0.1747,0.1788,0.1801,0.1821,0.186,0.1894,0.1936,0.1948,0.1995,0.201,0.2027,0.203,0.21,0.2083,0.2112,0.2157,0.2214,0.2227,0.2239,0.2259,0.2272,0.2115,0.2115,0.2115,0,0.1685,0.1706,0.1732,0.1761,0.1789,0.182,0.1849,0.1879,0.1929,0.1962,0.1969,0.2043,0.2045,0.2091,0.2126,0.2122,0.2143,0.2104,0.2226,0.2238,0.2248,0.2266,0.228,0.2119,0.2119,0.2118,0.2118,0,0.1704,0.1739,0.1759,0.1799,0.1834,0.1868,0.1902,0.1953,0.1993,0.2023,0.2101,0.2119,0.217,0.2181,0.217,0.2254,0.2241,0.2233,0.2189,0.2269,0.2283,0.2295,0.2125,0.2124,0.2122,0.2121,0,0,0.1686,0.1755,0.1768,0.1796,0.1859,0.1882,0.1942,0.2,0.2052,0.2109,0.218,0.2224,0.2263,0.2271,0.2281,0.2323,0.2418,0.2318,0.2319,0.2328,0.2532,0.2365,0.2362,0.2442,0.2444,0.2447,0.2509,0,0.1696,0.1747,0.1784,0.1841,0.1868,0.1927,0.1981,0.2043,0.2103,0.2182,0.2225,0.2297,0.2287,0.2333,0.2377,0.2416,0.2456,0.24,0.2461,0.2462,0.2296,0.2373,0.2455,0.2518,0.2521,0.2523,0.2524,0,0.169,0.173,0.1785,0.1863,0.1885,0.1932,0.2033,0.2086,0.2194,0.2249,0.2334,0.2377,0.2464,0.2441,0.2542,0.2515,0.2534,0.2545,0.2548,0.2371,0.2318,0.2424,0.2547,0.2545,0.2543,0.2542,0.254,0,0.1643,0.1724,0.177,0.1799,0.1894,0.1948,0.2011,0.212,0.2183,0.2313,0.238,0.2475,0.2548,0.2596,0.2633,0.2612,0.2721,0.2693,0.255,0.2537,0.2635,0.2621,0.2758,0.2758,0.2758,0.2758,0.2758,0,0.1612,0.1653,0.1761,0.1787,0.186,0.1941,0.2038,0.2116,0.2242,0.2319,0.2425,0.2489,0.2599,0.2666,0.2674,0.2649,0.2765,0.2563,0.2549,0.2663,0.2653,0.2643,0.2629,0.276,0.276,0.2759,0.2759,0,0.1541,0.1612,0.1672,0.1793,0.1837,0.1896,0.2048,0.2105,0.2247,0.2353,0.2405,0.2546,0.263,0.2694,0.2776,0.2691,0.2687,0.2646,0.276,0.2751,0.2451,0.244,0.2486,0.2481,0.2476,0.2473,0.247,0,0.1503,0.153,0.1666,0.1709,0.177,0.1877,0.1939,0.2091,0.2152,0.2357,0.2383,0.2532,0.2603,0.2576,0.2657,0.2655,0.2619,0.259,0.2512,0.2444,0.2428,0.2424,0.2419,0.2463,0.2461,0.246,0.2459,0,0.1435,0.1502,0.1555,0.1644,0.1719,0.1788,0.1895,0.193,0.2099,0.225,0.2313,0.2356,0.2437,0.2477,0.2498,0.2489,0.2594,0.2543,0.2551,0.2477,0.2416,0.2403,0.2404,0.2444,0.2446,0.2447,0.2448,0,0.1393,0.1413,0.1496,0.1557,0.1641,0.1665,0.1742,0.1812,0.1895,0.2113,0.2133,0.2279,0.2422,0.2392,0.2411,0.2393,0.2345,0.2247,0.227,0.2287,0.219,0.2082,0.2002,0,0,0,0,0,0.1341,0.1347,0.1398,0.145,0.1523,0.1573,0.1687,0.1764,0.1931,0.1921,0.2024,0.2088,0.2129,0.2201,0.214,0.2309,0.2346,0.2225,0.2244,0.2359,0.2376,0.2279,0,0,0,0,0,0,0.1305,0.1349,0.1358,0.1343,0.1358,0.1419,0.1486,0.16,0.1605,0.1787,0.182,0.1957,0.2026,0.2149,0.2102,0.2121,0.2086,0.2319,0.2313,0.2349,0.2365,0.2379,0.2285,0,0,0,0,0]},{"header":{"parameterUnit":"m.s-1","parameterCategory":2,"la1":30.2991,"la2":30.254,"lo1":-89.0895,"lo2":-89.0444,"dy":0.0017,"dx":0.0017,"nx":28,"ny":28,"refTime":"2023-08-25T09:00:00:Z","depth":"4","parameterNumber":3,"parameterNumberName":"V-component_of_CURRENTS"},"data":[0,0,0,0,0,0,0,0,0,0,0,0,0,0,0,0,0,0,0,0,0,0,0,0,0,0,0,0,0,0,0,0,0,0,0,0,0,0,0,0,0,0,0,0,0,0,0,0,0,0,0,0,0,0,0,0,0,0,0.02,0.02,0,0.0181,0.0181,0.0181,0.0167,0.0167,0.0167,0.0166,0.0129,0.0128,0.0127,0,0,0,0,0,0,0,0,0,0,0,0,0,0.0199,0.02,0.02,0.02,0.02,0.0181,0.0181,0.0181,0.0167,0.0167,0.0167,0.0166,0.0129,0.0128,0.0127,0,0,0,0,0,0,0,0,0,0,0,0,0,0.0193,0.02,0.02,0.019,0.0189,0.0181,0.0181,0.0181,0.0167,0.0167,0.0166,0.0166,0.0129,0.0128,0.0127,0.0126,0,0,0.0123,0.0123,0,0,0,0,0,0,0,0,0.0193,0.0193,0.0192,0.019,0.0189,0.0175,0.0167,0.0161,0.0167,0.0176,0.0166,0.0166,0.0142,0.014,0.0139,0.0124,0.0123,0.0123,0.0123,0.0122,0.0122,0,0,0,0,0,0,0,0.0194,0.0194,0.0194,0.0191,0.019,0.0177,0.0176,0.0166,0.0162,0.0176,0.0174,0.017,0.0141,0.014,0.0138,0.0122,0.0123,0.0122,0.0122,0.0121,0.0101,0.0101,0,0,0,0,0,0,0.0196,0.0195,0.0194,0.0193,0.0189,0.0177,0.0176,0.0181,0.0162,0.0159,0.0171,0.017,0.0142,0.0139,0.0136,0.014,0.0122,0.0121,0.012,0.01,0.0101,0.0101,0,0,0,0,0,0,0.0196,0.0196,0.0195,0.0192,0.0191,0.0178,0.0183,0.0181,0.018,0.0159,0.0155,0.0172,0.0142,0.0138,0.0129,0.0138,0.012,0.0119,0.01,0.01,0.0101,0.0143,0,0,0,0,0,0,0.0196,0.0197,0.02,0.0192,0.0191,0.0196,0.0183,0.018,0.0178,0.0176,0.0159,0.0155,0.0141,0.0131,0.0128,0.0136,0.0118,0.01,0.01,0.0101,0.0141,0.0145,0.0147,0,0,0,0,0,0.0197,0.0206,0.0201,0.02,0.0196,0.0197,0.0195,0.0185,0.0178,0.0183,0.0168,0.0156,0.013,0.013,0.0126,0.0135,0.01,0.01,0.0101,0.014,0.0144,0.0147,0,0,0,0,0,0,0.0207,0.0205,0.0199,0.0207,0.0203,0.0194,0.0197,0.0188,0.0181,0.0181,0.0158,0.0154,0.0149,0.0135,0.0135,0.0129,0.0113,0.0113,0.0144,0.0148,0.0151,0.0159,0.0117,0,0,0,0,0,0.0211,0.022,0.0211,0.0219,0.0218,0.0207,0.0205,0.0201,0.0192,0.0189,0.0175,0.016,0.0148,0.0142,0.013,0.0128,0.0099,0.013,0.0133,0.0136,0.0139,0.0101,0.01,0.0102,0.0102,0.0102,0,0,0.0216,0.0218,0.0221,0.0222,0.0219,0.0226,0.0206,0.0211,0.0218,0.0186,0.0191,0.0171,0.0149,0.0147,0.0144,0.0136,0.0119,0.0136,0.0139,0.0141,0.0101,0.0101,0.0101,0.0102,0.0102,0.0102,0,0,0.0237,0.0235,0.0249,0.0249,0.0248,0.0243,0.0246,0.0239,0.0236,0.0236,0.0214,0.0197,0.0184,0.0167,0.0157,0.0169,0.0136,0.0167,0.0191,0.0154,0.0153,0.0152,0.0112,0.0108,0.0169,0.017,0.017,0,0.0243,0.0262,0.0252,0.0266,0.0271,0.0253,0.027,0.0266,0.0257,0.0257,0.0245,0.0215,0.0193,0.0184,0.0187,0.0176,0.0149,0.018,0.0158,0.0156,0.0155,0.0114,0.0108,0.0172,0.0171,0.0171,0.0171,0,0.0273,0.0288,0.0298,0.0311,0.0314,0.0328,0.032,0.0323,0.0315,0.0305,0.0294,0.0259,0.0242,0.023,0.0213,0.0196,0.0178,0.0166,0.015,0.0157,0.0114,0.0107,0.0175,0.0174,0.0173,0.0173,0,0,0.0289,0.0314,0.0318,0.0338,0.0342,0.0353,0.0364,0.0369,0.038,0.0356,0.0359,0.0325,0.03,0.0286,0.0256,0.022,0.0182,0.0194,0.0191,0.0157,0.0097,0.0092,0.0084,0.0166,0.0165,0.0165,0.0069,0,0.0317,0.0358,0.036,0.04,0.0422,0.0415,0.043,0.043,0.0421,0.0418,0.0372,0.0364,0.0324,0.0318,0.0274,0.0209,0.0167,0.0208,0.0092,0.0089,0.0086,0.0077,0.0162,0.0064,0.0062,0.0061,0.006,0,0.0347,0.0373,0.0419,0.0457,0.0466,0.0486,0.051,0.0524,0.0508,0.0498,0.047,0.0432,0.0382,0.0346,0.023,0.026,0.0184,0.0124,0.0118,0.0096,0.0072,0.0054,0.0048,0.0049,0.005,0.0051,0.0051,0,0.0371,0.0416,0.0459,0.0471,0.0507,0.0529,0.0549,0.055,0.0574,0.0553,0.0555,0.0483,0.0457,0.0351,0.023,0.023,0.0093,0.0077,-0.0005,-0.0006,0.0008,0.001,-0.0012,-0.0012,-0.0012,-0.0012,-0.0011,0,0.0401,0.0438,0.0479,0.0503,0.0565,0.0572,0.0628,0.0633,0.0643,0.0673,0.0605,0.0597,0.0458,0.0365,0.0243,0.0101,0.0101,-0.0004,-0.0031,0.0027,0.0033,0.0003,0.0006,-0.0015,-0.0014,-0.0014,-0.0013,0,0.0422,0.0447,0.0505,0.0555,0.0582,0.0627,0.0696,0.0728,0.0731,0.0765,0.0764,0.0683,0.0563,0.041,0.0235,0.0131,-0.0012,-0.0065,0.0008,-0.0012,-0.0093,-0.0087,-0.0166,-0.0167,-0.0168,-0.0169,-0.0169,0,0.0434,0.0467,0.0548,0.0592,0.0622,0.0693,0.0743,0.0775,0.081,0.0817,0.0829,0.0733,0.0659,0.0408,0.0238,0.0,-0.0034,-0.0115,-0.0108,-0.0091,-0.0109,-0.0101,-0.0094,-0.017,-0.0171,-0.0171,-0.0171,0,0.0458,0.049,0.0538,0.0631,0.0697,0.0777,0.0846,0.0879,0.0916,0.0919,0.0888,0.0761,0.0621,0.0418,0.0234,0.0062,-0.0066,-0.0124,-0.0124,-0.0118,-0.0097,-0.0113,-0.0105,-0.0174,-0.0173,-0.0173,-0.0173,0,0.0476,0.0513,0.058,0.0664,0.0751,0.083,0.0869,0.091,0.0949,0.0952,0.0939,0.0789,0.0705,0.0449,0.0279,0.0111,0.0064,0.0003,-0.0005,-0.0004,0.007,0.0122,0.0088,0,0,0,0,0,0.049,0.0532,0.0605,0.0695,0.0782,0.0839,0.0924,0.0952,0.0988,0.0978,0.0964,0.0836,0.0591,0.0479,0.0311,0.0245,0.0021,0.004,-0.0056,-0.0189,-0.0186,-0.0128,0,0,0,0,0,0,0.0496,0.0563,0.0601,0.0709,0.0773,0.0874,0.0932,0.0958,0.0951,0.096,0.0833,0.0784,0.0542,0.0689,0.0305,0.0253,0.0166,-0.0071,-0.0075,-0.0191,-0.0188,-0.0186,-0.0124,0,0,0,0,0]}]]